This is the latest recevied weather packets stored in our database for station/object IW4ENL-7. If no packets are shown the sender has not sent any weather packets the latest 1 day(s).
| Time | Temp. | Humidity | Pressure | Rain* | Wind** | Luminosity | Snow |
|---|---|---|---|---|---|---|---|
| 1778075970 | 18.33° C | 53% | 956 hPa | - | - | - | - |
| 1778074324 | 18.33° C | 59% | 956 hPa | - | - | - | - |
| 1778074142 | 17.78° C | 59% | 956 hPa | - | - | - | - |
| 1778073410 | 17.78° C | 60% | 956 hPa | - | - | - | - |
| 1778071763 | 16.67° C | 67% | 956 hPa | - | - | - | - |
| 1778071580 | 17.22° C | 68% | 956 hPa | - | - | - | - |
| 1778071397 | 17.22° C | 70% | 957 hPa | - | - | - | - |
| 1778071031 | 17.22° C | 71% | 956 hPa | - | - | - | - |
| 1778070848 | 16.67° C | 71% | 957 hPa | - | - | - | - |
| 1778070665 | 16.67° C | 72% | 957 hPa | - | - | - | - |
| 1778066640 | 11.67° C | 75% | 957 hPa | - | - | - | - |
| 1778066274 | 11.67° C | 74% | 957 hPa | - | - | - | - |
| 1778066091 | 12.22° C | 74% | 957 hPa | - | - | - | - |
| 1778065177 | 12.22° C | 74% | 957 hPa | - | - | - | - |
| 1778064811 | 12.22° C | 73% | 957 hPa | - | - | - | - |
| 1778064445 | 12.22° C | 74% | 957 hPa | - | - | - | - |
| 1778063348 | 12.22° C | 72% | 957 hPa | - | - | - | - |
| 1778062616 | 13.33° C | 72% | 958 hPa | - | - | - | - |
| 1778061519 | 12.78° C | 72% | 957 hPa | - | - | - | - |
| 1778061336 | 13.33° C | 72% | 957 hPa | - | - | - | - |
| 1778061153 | 13.33° C | 72% | 958 hPa | - | - | - | - |
| 1778060239 | 12.22° C | 73% | 957 hPa | - | - | - | - |
| 1778060056 | 12.22° C | 73% | 957 hPa | - | - | - | - |
| 1778059873 | 12.22° C | 72% | 957 hPa | - | - | - | - |
| 1778058776 | 12.22° C | 72% | 957 hPa | - | - | - | - |
* Rain since midnight (hover to see other rain measurements)
** Current wind speed in m/s (hover to see current wind gust speed)